| time (UTC) | temp F | wind direction | speed MPH | gust MPH | rain 1hr in | rain 24hr in | rain mn in | humidity % | barometer mb |
| 20260510153054 | 58 | 241 | 4.0 | 15.0 | 0.00 | 0.33 | 0.14 | 63 | 1011.5 |
| 20260510152543 | 57 | 232 | 4.0 | 15.0 | 0.00 | 0.33 | 0.14 | 62 | 1011.4 |
| 20260510152045 | 57 | 233 | 7.0 | 15.0 | 0.00 | 0.33 | 0.14 | 61 | 1011.5 |
| 20260510151554 | 57 | 243 | 7.0 | 14.0 | 0.00 | 0.33 | 0.14 | 61 | 1011.7 |
| 20260510151045 | 58 | 233 | 4.0 | 15.0 | 0.00 | 0.33 | 0.14 | 61 | 1011.6 |
| 20260510150545 | 58 | 265 | 3.0 | 15.0 | 0.00 | 0.33 | 0.14 | 61 | 1011.7 |
| 20260510150121 | 57 | 224 | 4.0 | 14.0 | 0.00 | 0.33 | 0.14 | 60 | 1011.7 |
| 20260510145548 | 57 | 238 | 3.0 | 15.0 | 0.00 | 0.35 | 0.14 | 64 | 1011.9 |
| 20260510145043 | 56 | 236 | 4.0 | 15.0 | 0.00 | 0.35 | 0.14 | 67 | 1011.9 |
| 20260510144610 | 56 | 251 | 4.0 | 13.0 | 0.00 | 0.35 | 0.14 | 68 | 1012.0 |
| 20260510144044 | 56 | 223 | 2.0 | 13.0 | 0.00 | 0.35 | 0.14 | 69 | 1012.1 |
| 20260510143542 | 56 | 209 | 2.0 | 17.0 | 0.00 | 0.35 | 0.14 | 70 | 1012.1 |
| 20260510143053 | 55 | 279 | 3.0 | 17.0 | 0.00 | 0.35 | 0.14 | 71 | 1012.0 |
| 20260510142541 | 55 | 199 | 2.0 | 16.0 | 0.00 | 0.35 | 0.14 | 72 | 1012.2 |
| 20260510142046 | 55 | 309 | 3.0 | 16.0 | 0.00 | 0.35 | 0.14 | 71 | 1012.1 |
| 20260510141548 | 54 | 230 | 3.0 | 10.0 | 0.00 | 0.35 | 0.14 | 71 | 1012.1 |
| 20260510141046 | 55 | 270 | 3.0 | 11.0 | 0.00 | 0.35 | 0.14 | 70 | 1012.2 |
| 20260510140542 | 55 | 9 | 4.0 | 11.0 | 0.00 | 0.35 | 0.14 | 70 | 1012.2 |
| 20260510140053 | 55 | 24 | 3.0 | 16.0 | 0.00 | 0.35 | 0.14 | 71 | 1012.1 |
| 20260510135545 | 55 | 232 | 4.0 | 16.0 | 0.00 | 0.35 | 0.14 | 71 | 1012.0 |
| 20260510135046 | 55 | 305 | 2.0 | 12.0 | 0.00 | 0.35 | 0.14 | 73 | 1012.1 |
| 20260510134605 | 54 | 346 | 3.0 | 12.0 | 0.00 | 0.35 | 0.14 | 76 | 1012.2 |
| 20260510134042 | 54 | 239 | 3.0 | 14.0 | 0.00 | 0.35 | 0.14 | 75 | 1012.0 |
| 20260510133545 | 54 | 278 | 2.0 | 14.0 | 0.00 | 0.35 | 0.14 | 74 | 1012.1 |
| 20260510133054 | 55 | 288 | 1.0 | 12.0 | 0.00 | 0.35 | 0.14 | 74 | 1012.0 |
| 20260510132545 | 55 | 294 | 3.0 | 12.0 | 0.00 | 0.35 | 0.14 | 73 | 1012.0 |
| 20260510132047 | 55 | 284 | 2.0 | 10.0 | 0.00 | 0.35 | 0.14 | 72 | 1011.9 |
| 20260510131557 | 56 | 283 | 2.0 | 10.0 | 0.00 | 0.35 | 0.14 | 73 | 1011.8 |
| 20260510131045 | 56 | 226 | 4.0 | 10.0 | 0.00 | 0.35 | 0.14 | 72 | 1011.8 |
| 20260510130542 | 56 | 297 | 2.0 | 14.0 | 0.00 | 0.35 | 0.14 | 72 | 1011.6 |
| 20260510130053 | 56 | 239 | 5.0 | 14.0 | 0.00 | 0.35 | 0.14 | 72 | 1011.8 |
| 20260510125545 | 56 | 227 | 6.0 | 14.0 | 0.00 | 0.44 | 0.14 | 72 | 1011.8 |
| 20260510125045 | 56 | 183 | 4.0 | 12.0 | 0.00 | 0.44 | 0.14 | 73 | 1011.9 |
| 20260510124600 | 55 | 240 | 2.0 | 11.0 | 0.00 | 0.44 | 0.14 | 75 | 1011.8 |
| 20260510124045 | 55 | 284 | 1.0 | 11.0 | 0.00 | 0.44 | 0.14 | 76 | 1011.9 |
| 20260510123545 | 54 | 220 | 2.0 | 10.0 | 0.00 | 0.44 | 0.14 | 76 | 1012.0 |
| 20260510123052 | 54 | 203 | 3.0 | 13.0 | 0.00 | 0.44 | 0.14 | 76 | 1012.1 |
| 20260510122545 | 54 | 235 | 2.0 | 13.0 | 0.00 | 0.44 | 0.14 | 77 | 1012.2 |
| 20260510122045 | 54 | 192 | 6.0 | 13.0 | 0.01 | 0.44 | 0.14 | 77 | 1012.2 |
| 20260510121553 | 54 | 283 | 2.0 | 11.0 | 0.01 | 0.44 | 0.14 | 81 | 1012.1 |
| 20260510121045 | 54 | 329 | 2.0 | 9.0 | 0.01 | 0.44 | 0.14 | 83 | 1011.9 |
| 20260510120545 | 53 | 253 | 1.0 | 12.0 | 0.01 | 0.44 | 0.14 | 82 | 1011.9 |
| 20260510120051 | 52 | 240 | 7.0 | 12.0 | 0.01 | 0.44 | 0.14 | 80 | 1012.1 |
| 20260510115545 | 52 | 224 | 3.0 | 9.0 | 0.01 | 0.44 | 0.14 | 81 | 1012.1 |
| 20260510115045 | 52 | 243 | 2.0 | 13.0 | 0.01 | 0.44 | 0.14 | 82 | 1012.1 |
| 20260510114612 | 52 | 198 | 2.0 | 13.0 | 0.01 | 0.44 | 0.14 | 84 | 1012.2 |
| 20260510114041 | 52 | 243 | 3.0 | 10.0 | 0.02 | 0.44 | 0.14 | 85 | 1012.3 |
| 20260510113544 | 52 | 241 | 0.0 | 10.0 | 0.02 | 0.44 | 0.14 | 86 | 1012.4 |
| 20260510113056 | 51 | 285 | 1.0 | 10.0 | 0.02 | 0.44 | 0.14 | 85 | 1012.4 |
| 20260510112543 | 51 | 249 | 2.0 | 15.0 | 0.01 | 0.44 | 0.13 | 85 | 1012.6 |
| 20260510112043 | 51 | 289 | 3.0 | 15.0 | 0.03 | 0.43 | 0.12 | 84 | 1012.7 |
| 20260510111553 | 52 | 213 | 2.0 | 13.0 | 0.09 | 0.43 | 0.12 | 85 | 1012.5 |
| 20260510111045 | 52 | 301 | 4.0 | 13.0 | 0.09 | 0.43 | 0.12 | 85 | 1012.4 |
| 20260510110545 | 52 | 220 | 1.0 | 11.0 | 0.09 | 0.43 | 0.12 | 85 | 1012.3 |
| 20260510110056 | 52 | 285 | 2.0 | 8.0 | 0.09 | 0.43 | 0.12 | 85 | 1012.2 |
| 20260510105548 | 51 | 244 | 2.0 | 8.0 | 0.09 | 0.52 | 0.12 | 85 | 1012.0 |
| 20260510105045 | 51 | 262 | 2.0 | 13.0 | 0.09 | 0.52 | 0.12 | 86 | 1012.0 |
| 20260510104600 | 51 | 241 | 2.0 | 13.0 | 0.09 | 0.52 | 0.12 | 85 | 1012.2 |
| 20260510104045 | 52 | 184 | 2.0 | 12.0 | 0.08 | 0.51 | 0.11 | 85 | 1012.2 |
| 20260510103545 | 52 | 199 | 3.0 | 15.0 | 0.08 | 0.51 | 0.11 | 84 | 1012.3 |
| 20260510103052 | 52 | 145 | 6.0 | 15.0 | 0.08 | 0.51 | 0.11 | 83 | 1012.1 |
| 20260510102547 | 54 | 236 | 6.0 | 12.0 | 0.08 | 0.51 | 0.11 | 80 | 1012.0 |
| 20260510102045 | 56 | 209 | 4.0 | 9.0 | 0.04 | 0.48 | 0.07 | 77 | 1011.7 |
| 20260510101559 | 56 | 236 | 3.0 | 14.0 | 0.00 | 0.43 | 0.03 | 78 | 1011.3 |
| 20260510101042 | 56 | 201 | 4.0 | 15.0 | 0.00 | 0.43 | 0.03 | 77 | 1011.3 |
| 20260510100543 | 56 | 186 | 7.0 | 16.0 | 0.00 | 0.43 | 0.03 | 77 | 1011.3 |
| 20260510095543 | 55 | 222 | 8.0 | 15.0 | 0.00 | 0.43 | 0.03 | 75 | 1011.4 |
| 20260510095045 | 56 | 166 | 7.0 | 17.0 | 0.00 | 0.43 | 0.03 | 77 | 1011.4 |
| 20260510094603 | 55 | 170 | 8.0 | 17.0 | 0.00 | 0.43 | 0.03 | 78 | 1011.4 |
| 20260510094042 | 55 | 191 | 6.0 | 17.0 | 0.00 | 0.43 | 0.03 | 77 | 1011.3 |
| 20260510093545 | 55 | 160 | 6.0 | 18.0 | 0.00 | 0.43 | 0.03 | 77 | 1011.5 |
| 20260510093100 | 55 | 147 | 8.0 | 18.0 | 0.00 | 0.43 | 0.03 | 77 | 1011.6 |
| 20260510092541 | 55 | 186 | 7.0 | 16.0 | 0.00 | 0.43 | 0.03 | 77 | 1011.6 |
| 20260510092045 | 55 | 181 | 6.0 | 19.0 | 0.00 | 0.43 | 0.03 | 80 | 1011.6 |
| 20260510091554 | 54 | 170 | 7.0 | 19.0 | 0.00 | 0.43 | 0.03 | 81 | 1011.6 |
| 20260510091045 | 54 | 180 | 7.0 | 15.0 | 0.00 | 0.43 | 0.03 | 81 | 1011.6 |
| 20260510090545 | 55 | 184 | 7.0 | 15.0 | 0.00 | 0.43 | 0.03 | 80 | 1011.6 |
| 20260510090052 | 54 | 126 | 6.0 | 14.0 | 0.00 | 0.43 | 0.03 | 83 | 1011.6 |
| 20260510085544 | 54 | 165 | 6.0 | 14.0 | 0.00 | 0.43 | 0.03 | 84 | 1011.6 |
| 20260510085045 | 53 | 222 | 5.0 | 13.0 | 0.00 | 0.43 | 0.03 | 85 | 1011.7 |
| 20260510084548 | 53 | 159 | 6.0 | 13.0 | 0.00 | 0.43 | 0.03 | 86 | 1011.6 |
| 20260510084046 | 53 | 180 | 5.0 | 13.0 | 0.00 | 0.43 | 0.03 | 86 | 1011.7 |
| 20260510083545 | 52 | 135 | 7.0 | 13.0 | 0.00 | 0.43 | 0.03 | 86 | 1011.6 |
| 20260510083051 | 52 | 145 | 5.0 | 15.0 | 0.00 | 0.43 | 0.03 | 86 | 1011.6 |
| 20260510082544 | 52 | 170 | 6.0 | 15.0 | 0.00 | 0.43 | 0.03 | 86 | 1011.7 |
| 20260510082042 | 52 | 147 | 8.0 | 15.0 | 0.00 | 0.43 | 0.03 | 85 | 1011.8 |
| 20260510081549 | 52 | 182 | 6.0 | 15.0 | 0.00 | 0.43 | 0.03 | 85 | 1011.9 |
| 20260510081046 | 52 | 200 | 4.0 | 12.0 | 0.00 | 0.43 | 0.03 | 86 | 1011.8 |
| 20260510080543 | 52 | 188 | 7.0 | 12.0 | 0.00 | 0.43 | 0.03 | 86 | 1011.8 |
| 20260510080054 | 52 | 199 | 5.0 | 16.0 | 0.00 | 0.43 | 0.03 | 86 | 1011.6 |
| 20260510075545 | 52 | 173 | 6.0 | 16.0 | 0.00 | 0.43 | 0.03 | 86 | 1011.7 |
| 20260510075045 | 51 | 221 | 6.0 | 11.0 | 0.00 | 0.43 | 0.03 | 86 | 1012.0 |
| 20260510074552 | 52 | 178 | 7.0 | 15.0 | 0.00 | 0.43 | 0.03 | 86 | 1012.1 |
| 20260510074045 | 51 | 180 | 5.0 | 15.0 | 0.00 | 0.43 | 0.03 | 86 | 1012.0 |
| 20260510073548 | 51 | 166 | 5.0 | 10.0 | 0.00 | 0.43 | 0.03 | 86 | 1012.1 |
| 20260510073056 | 51 | 146 | 4.0 | 10.0 | 0.00 | 0.43 | 0.03 | 86 | 1011.9 |
| 20260510072548 | 51 | 183 | 5.0 | 10.0 | 0.00 | 0.43 | 0.03 | 86 | 1011.9 |
| 20260510072045 | 51 | 179 | 5.0 | 10.0 | 0.00 | 0.43 | 0.03 | 85 | 1012.0 |
| 20260510071551 | 51 | 191 | 4.0 | 10.0 | 0.00 | 0.43 | 0.03 | 85 | 1011.9 |
| 20260510071045 | 51 | 193 | 5.0 | 10.0 | 0.00 | 0.43 | 0.03 | 84 | 1011.9 |
| 20260510070545 | 51 | 222 | 5.0 | 10.0 | 0.00 | 0.42 | 0.02 | 84 | 1011.8 |
| 20260510070105 | 51 | 168 | 5.0 | 10.0 | 0.00 | 0.42 | 0.02 | 84 | 1011.8 |
| 20260510065547 | 51 | 178 | 4.0 | 11.0 | 0.00 | 0.42 | 0.02 | 84 | 1011.9 |
| 20260510065047 | 51 | 179 | 6.0 | 11.0 | 0.00 | 0.42 | 0.02 | 84 | 1011.8 |
| 20260510064600 | 51 | 150 | 5.0 | 10.0 | 0.00 | 0.42 | 0.02 | 84 | 1011.8 |
| 20260510064048 | 51 | 166 | 4.0 | 10.0 | 0.00 | 0.42 | 0.02 | 84 | 1011.9 |
| 20260510063545 | 51 | 186 | 3.0 | 9.0 | 0.00 | 0.42 | 0.02 | 85 | 1011.8 |
| 20260510063059 | 51 | 188 | 3.0 | 9.0 | 0.00 | 0.42 | 0.02 | 85 | 1011.7 |
| 20260510062547 | 51 | 171 | 5.0 | 9.0 | 0.00 | 0.42 | 0.02 | 85 | 1011.6 |
| 20260510062042 | 51 | 178 | 4.0 | 9.0 | 0.00 | 0.42 | 0.02 | 86 | 1011.6 |
| 20260510061551 | 50 | 183 | 3.0 | 11.0 | 0.00 | 0.42 | 0.02 | 86 | 1011.5 |
| 20260510061042 | 50 | 168 | 5.0 | 11.0 | 0.00 | 0.42 | 0.02 | 86 | 1011.6 |
| 20260510060545 | 50 | 189 | 5.0 | 9.0 | 0.00 | 0.42 | 0.02 | 86 | 1011.6 |
| 20260510060059 | 50 | 155 | 3.0 | 8.0 | 0.00 | 0.42 | 0.02 | 86 | 1011.6 |
| 20260510055545 | 50 | 172 | 4.0 | 10.0 | 0.00 | 0.42 | 0.02 | 86 | 1011.5 |
| 20260510055046 | 50 | 187 | 4.0 | 11.0 | 0.00 | 0.42 | 0.02 | 86 | 1011.5 |
| 20260510054600 | 50 | 184 | 6.0 | 11.0 | 0.00 | 0.42 | 0.02 | 86 | 1011.5 |
| 20260510054044 | 50 | 187 | 3.0 | 8.0 | 0.00 | 0.42 | 0.02 | 86 | 1011.6 |
| 20260510053542 | 50 | 146 | 4.0 | 8.0 | 0.00 | 0.42 | 0.02 | 86 | 1011.4 |
| 20260510053054 | 50 | 149 | 3.0 | 9.0 | 0.00 | 0.42 | 0.02 | 86 | 1011.5 |
| 20260510052545 | 50 | 187 | 5.0 | 10.0 | 0.00 | 0.42 | 0.02 | 86 | 1011.5 |
| 20260510052042 | 50 | 168 | 4.0 | 10.0 | 0.00 | 0.42 | 0.02 | 86 | 1011.5 |
| 20260510051555 | 50 | 176 | 5.0 | 9.0 | 0.00 | 0.42 | 0.02 | 87 | 1011.5 |
| 20260510051045 | 50 | 179 | 3.0 | 9.0 | 0.00 | 0.42 | 0.02 | 87 | 1011.4 |
| 20260510050542 | 50 | 199 | 4.0 | 9.0 | 0.00 | 0.42 | 0.02 | 87 | 1011.3 |
| 20260510050053 | 50 | 166 | 3.0 | 6.0 | 0.00 | 0.42 | 0.02 | 87 | 1011.3 |
| 20260510045542 | 50 | 137 | 2.0 | 6.0 | 0.00 | 0.42 | 0.02 | 87 | 1011.4 |
| 20260510045045 | 50 | 124 | 3.0 | 7.0 | 0.00 | 0.42 | 0.02 | 87 | 1011.3 |
| 20260510044611 | 50 | 184 | 4.0 | 7.0 | 0.00 | 0.42 | 0.02 | 87 | 1011.4 |
| 20260510044047 | 50 | 210 | 4.0 | 7.0 | 0.00 | 0.42 | 0.02 | 87 | 1011.3 |
| 20260510043545 | 50 | 179 | 3.0 | 8.0 | 0.00 | 0.42 | 0.02 | 87 | 1011.4 |
| 20260510043054 | 50 | 168 | 3.0 | 8.0 | 0.00 | 0.42 | 0.02 | 87 | 1011.3 |
| 20260510042544 | 50 | 201 | 4.0 | 8.0 | 0.00 | 0.42 | 0.02 | 87 | 1011.4 |
| 20260510042044 | 50 | 194 | 3.0 | 8.0 | 0.00 | 0.42 | 0.02 | 87 | 1011.4 |
| 20260510041557 | 50 | 178 | 4.0 | 9.0 | 0.00 | 0.42 | 0.02 | 86 | 1011.4 |
| 20260510041047 | 50 | 173 | 5.0 | 9.0 | 0.00 | 0.42 | 0.02 | 86 | 1011.5 |
| 20260510040549 | 50 | 159 | 3.0 | 9.0 | 0.00 | 0.42 | 0.02 | 86 | 1011.5 |
| 20260510040049 | 50 | 186 | 3.0 | 9.0 | 0.00 | 0.42 | 0.02 | 86 | 1011.3 |
| 20260510035544 | 50 | 178 | 3.0 | 7.0 | 0.00 | 0.42 | 0.02 | 86 | 1011.3 |
| 20260510035047 | 50 | 184 | 3.0 | 7.0 | 0.00 | 0.42 | 0.02 | 86 | 1011.3 |
| 20260510034550 | 50 | 151 | 3.0 | 7.0 | 0.00 | 0.42 | 0.02 | 86 | 1011.4 |
| 20260510034043 | 50 | 166 | 3.0 | 8.0 | 0.00 | 0.42 | 0.02 | 86 | 1011.4 |
| 20260510033545 | 50 | 131 | 3.0 | 8.0 | 0.00 | 0.42 | 0.02 | 86 | 1011.4 |
| 20260510033115 | 50 | 165 | 2.0 | 7.0 | 0.00 | 0.42 | 0.02 | 86 | 1011.4 |
| 20260510032546 | 50 | 160 | 3.0 | 7.0 | 0.00 | 0.42 | 0.02 | 86 | 1011.5 |
| 20260510032042 | 50 | 165 | 2.0 | 7.0 | 0.00 | 0.42 | 0.02 | 86 | 1011.6 |
| 20260510031605 | 50 | 180 | 3.0 | 9.0 | 0.00 | 0.42 | 0.02 | 86 | 1011.7 |
| 20260510031043 | 50 | 182 | 4.0 | 9.0 | 0.00 | 0.42 | 0.02 | 86 | 1011.7 |
| 20260510030545 | 50 | 184 | 2.0 | 9.0 | 0.00 | 0.42 | 0.02 | 87 | 1011.8 |
| 20260510030054 | 50 | 190 | 4.0 | 9.0 | 0.00 | 0.42 | 0.02 | 87 | 1011.8 |
| 20260510025543 | 50 | 180 | 3.0 | 6.0 | 0.00 | 0.42 | 0.02 | 87 | 1011.8 |
| 20260510025042 | 50 | 165 | 3.0 | 6.0 | 0.00 | 0.42 | 0.02 | 87 | 1012.0 |
| 20260510024552 | 50 | 196 | 1.0 | 4.0 | 0.00 | 0.42 | 0.02 | 87 | 1012.1 |
| 20260510024044 | 50 | 0 | 1.0 | 3.0 | 0.00 | 0.42 | 0.02 | 87 | 1012.0 |
| 20260510023544 | 50 | 0 | 0.0 | 4.0 | 0.00 | 0.42 | 0.02 | 87 | 1012.1 |
| 20260510023051 | 50 | 218 | 1.0 | 4.0 | 0.00 | 0.42 | 0.02 | 87 | 1012.1 |
| 20260510022547 | 50 | 208 | 2.0 | 4.0 | 0.00 | 0.42 | 0.02 | 87 | 1012.1 |
| 20260510022043 | 50 | 218 | 1.0 | 4.0 | 0.00 | 0.42 | 0.02 | 87 | 1012.0 |
| 20260510021551 | 50 | 203 | 2.0 | 5.0 | 0.00 | 0.42 | 0.02 | 87 | 1012.0 |
| 20260510021043 | 50 | 0 | 0.0 | 5.0 | 0.00 | 0.42 | 0.02 | 87 | 1011.9 |
| 20260510020548 | 50 | 186 | 1.0 | 4.0 | 0.00 | 0.42 | 0.02 | 87 | 1012.0 |
| 20260510020052 | 50 | 0 | 1.0 | 4.0 | 0.00 | 0.42 | 0.02 | 87 | 1012.1 |
| 20260510015542 | 50 | 0 | 0.0 | 7.0 | 0.00 | 0.42 | 0.02 | 87 | 1012.0 |
| 20260510015048 | 50 | 248 | 1.0 | 7.0 | 0.00 | 0.42 | 0.02 | 87 | 1012.1 |
| 20260510014606 | 50 | 276 | 0.0 | 6.0 | 0.00 | 0.42 | 0.02 | 87 | 1012.0 |
| 20260510014045 | 50 | 284 | 1.0 | 6.0 | 0.00 | 0.42 | 0.02 | 87 | 1012.0 |
| 20260510013542 | 50 | 228 | 0.0 | 5.0 | 0.00 | 0.42 | 0.02 | 87 | 1012.0 |
| 20260510013049 | 50 | 211 | 1.0 | 5.0 | 0.00 | 0.42 | 0.02 | 87 | 1012.0 |
| 20260510012545 | 50 | 0 | 2.0 | 5.0 | 0.00 | 0.42 | 0.02 | 87 | 1012.0 |
| 20260510012045 | 50 | 0 | 0.0 | 7.0 | 0.00 | 0.42 | 0.02 | 87 | 1012.1 |
| 20260510011559 | 50 | 251 | 1.0 | 7.0 | 0.00 | 0.42 | 0.02 | 87 | 1012.1 |
| 20260510011044 | 50 | 213 | 3.0 | 8.0 | 0.00 | 0.42 | 0.02 | 87 | 1012.2 |
| 20260510010544 | 50 | 221 | 3.0 | 9.0 | 0.00 | 0.42 | 0.02 | 87 | 1012.2 |
| 20260510010100 | 50 | 191 | 3.0 | 9.0 | 0.00 | 0.42 | 0.02 | 87 | 1012.1 |
| 20260510005544 | 50 | 250 | 3.0 | 8.0 | 0.00 | 0.42 | 0.02 | 87 | 1012.2 |
| 20260510005046 | 51 | 207 | 1.0 | 8.0 | 0.00 | 0.42 | 0.02 | 87 | 1012.1 |
| 20260510004556 | 50 | 163 | 3.0 | 8.0 | 0.00 | 0.42 | 0.02 | 87 | 1012.1 |
| 20260510004045 | 50 | 226 | 3.0 | 8.0 | 0.00 | 0.42 | 0.02 | 87 | 1012.3 |
| 20260510003542 | 50 | 203 | 2.0 | 8.0 | 0.00 | 0.42 | 0.02 | 87 | 1012.3 |
| 20260510003100 | 50 | 222 | 3.0 | 7.0 | 0.00 | 0.42 | 0.02 | 87 | 1012.3 |
| 20260510002545 | 50 | 222 | 3.0 | 7.0 | 0.00 | 0.42 | 0.02 | 87 | 1012.4 |
| 20260510002042 | 50 | 209 | 1.0 | 7.0 | 0.00 | 0.42 | 0.02 | 87 | 1012.4 |
| 20260510001554 | 50 | 239 | 1.0 | 5.0 | 0.00 | 0.42 | 0.02 | 87 | 1012.3 |
| 20260510001043 | 50 | 253 | 1.0 | 5.0 | 0.00 | 0.42 | 0.02 | 87 | 1012.4 |
| 20260510000544 | 50 | 0 | 0.0 | 7.0 | 0.00 | 0.42 | 0.02 | 87 | 1012.4 |
| 20260510000057 | 50 | 0 | 2.0 | 7.0 | 0.00 | 0.42 | 0.02 | 87 | 1012.4 |
| 20260509235547 | 50 | 244 | 0.0 | 5.0 | 0.00 | 0.42 | 0.02 | 88 | 1012.5 |
| 20260509235042 | 50 | 188 | 2.0 | 5.0 | 0.01 | 0.42 | 0.02 | 87 | 1012.4 |
| 20260509234605 | 50 | 191 | 0.0 | 4.0 | 0.02 | 0.42 | 0.02 | 87 | 1012.5 |
| 20260509234042 | 50 | 0 | 0.0 | 9.0 | 0.02 | 0.42 | 0.02 | 87 | 1012.5 |
| 20260509233547 | 50 | 0 | 2.0 | 10.0 | 0.02 | 0.42 | 0.02 | 87 | 1012.5 |
| 20260509233050 | 50 | 220 | 4.0 | 10.0 | 0.02 | 0.42 | 0.02 | 87 | 1012.6 |
| 20260509232545 | 50 | 0 | 0.0 | 4.0 | 0.02 | 0.42 | 0.02 | 87 | 1012.5 |
| 20260509232043 | 50 | 191 | 1.0 | 6.0 | 0.02 | 0.42 | 0.02 | 87 | 1012.6 |
| 20260509231552 | 50 | 0 | 1.0 | 9.0 | 0.02 | 0.42 | 0.02 | 87 | 1012.6 |
| 20260509231042 | 50 | 215 | 3.0 | 9.0 | 0.02 | 0.42 | 0.02 | 87 | 1012.6 |
| 20260509230545 | 50 | 205 | 4.0 | 8.0 | 0.02 | 0.42 | 0.02 | 86 | 1012.7 |
| 20260509230056 | 50 | 211 | 2.0 | 14.0 | 0.01 | 0.41 | 0.01 | 86 | 1012.7 |
| 20260509225548 | 51 | 0 | 3.0 | 14.0 | 0.01 | 0.41 | 0.01 | 86 | 1012.7 |
| 20260509225047 | 51 | 71 | 2.0 | 7.0 | 0.00 | 0.40 | 0.00 | 86 | 1012.6 |
| 20260509224547 | 51 | 276 | 1.0 | 11.0 | 0.00 | 0.40 | 0.00 | 86 | 1012.5 |
| 20260509224045 | 51 | 0 | 1.0 | 11.0 | 0.00 | 0.40 | 0.00 | 85 | 1012.4 |
| 20260509223544 | 51 | 16 | 0.0 | 9.0 | 0.00 | 0.40 | 0.00 | 86 | 1012.4 |
| 20260509223101 | 51 | 0 | 1.0 | 9.0 | 0.00 | 0.40 | 0.00 | 85 | 1012.4 |
| 20260509222542 | 51 | 0 | 0.0 | 3.0 | 0.00 | 0.40 | 0.00 | 86 | 1012.3 |
| 20260509222042 | 51 | 229 | 0.0 | 4.0 | 0.00 | 0.40 | 0.00 | 86 | 1012.3 |
| 20260509221551 | 51 | 0 | 1.0 | 4.0 | 0.00 | 0.40 | 0.00 | 86 | 1012.3 |
| 20260509221045 | 51 | 0 | 1.0 | 4.0 | 0.00 | 0.40 | 0.00 | 86 | 1012.3 |
| 20260509220543 | 51 | 0 | 2.0 | 4.0 | 0.00 | 0.40 | 0.00 | 86 | 1012.1 |
| 20260509215544 | 51 | 249 | 0.0 | 3.0 | 0.01 | 0.40 | 0.40 | 87 | 1011.9 |
| 20260509215044 | 51 | 0 | 0.0 | 3.0 | 0.02 | 0.40 | 0.40 | 87 | 1011.9 |
| 20260509214547 | 50 | 270 | 0.0 | 3.0 | 0.03 | 0.40 | 0.40 | 87 | 1011.9 |
| 20260509214043 | 50 | 0 | 0.0 | 3.0 | 0.04 | 0.40 | 0.40 | 87 | 1012.0 |
| 20260509213542 | 50 | 303 | 0.0 | 3.0 | 0.05 | 0.40 | 0.40 | 88 | 1012.0 |
| 20260509213052 | 50 | 0 | 0.0 | 3.0 | 0.07 | 0.40 | 0.40 | 87 | 1011.9 |
| 20260509212544 | 50 | 0 | 0.0 | 3.0 | 0.11 | 0.40 | 0.40 | 87 | 1011.8 |
| 20260509212045 | 50 | 297 | 0.0 | 3.0 | 0.11 | 0.40 | 0.40 | 87 | 1011.9 |
| 20260509211553 | 50 | 0 | 0.0 | 8.0 | 0.11 | 0.40 | 0.40 | 87 | 1011.9 |
| 20260509211045 | 50 | 298 | 0.0 | 8.0 | 0.11 | 0.40 | 0.40 | 87 | 1011.9 |
| 20260509210542 | 50 | 241 | 2.0 | 6.0 | 0.11 | 0.40 | 0.40 | 86 | 1012.0 |
| 20260509210053 | 50 | 351 | 2.0 | 9.0 | 0.10 | 0.39 | 0.39 | 86 | 1012.0 |
| 20260509205542 | 51 | 0 | 2.0 | 9.0 | 0.09 | 0.38 | 0.38 | 85 | 1012.0 |
| 20260509205046 | 51 | 191 | 2.0 | 9.0 | 0.07 | 0.37 | 0.37 | 85 | 1011.9 |
| 20260509204558 | 51 | 249 | 2.0 | 8.0 | 0.07 | 0.36 | 0.36 | 83 | 1011.8 |
| 20260509204045 | 52 | 81 | 1.0 | 12.0 | 0.06 | 0.35 | 0.35 | 81 | 1011.8 |
| 20260509203543 | 53 | 286 | 3.0 | 14.0 | 0.05 | 0.34 | 0.34 | 76 | 1011.8 |
| 20260509203049 | 56 | 257 | 5.0 | 14.0 | 0.02 | 0.31 | 0.31 | 68 | 1011.9 |
| 20260509202542 | 58 | 202 | 6.0 | 13.0 | 0.00 | 0.29 | 0.29 | 69 | 1011.3 |
| 20260509202046 | 58 | 148 | 6.0 | 16.0 | 0.00 | 0.29 | 0.29 | 69 | 1010.3 |
| 20260509201548 | 58 | 126 | 6.0 | 16.0 | 0.00 | 0.29 | 0.29 | 69 | 1010.2 |
| 20260509201045 | 58 | 153 | 6.0 | 16.0 | 0.00 | 0.29 | 0.29 | 69 | 1009.9 |
| 20260509200542 | 58 | 198 | 7.0 | 16.0 | 0.00 | 0.29 | 0.29 | 69 | 1009.8 |
| 20260509200053 | 58 | 186 | 6.0 | 12.0 | 0.00 | 0.29 | 0.29 | 69 | 1009.7 |
| 20260509195546 | 58 | 187 | 6.0 | 12.0 | 0.00 | 0.29 | 0.29 | 69 | 1009.6 |
| 20260509195051 | 58 | 195 | 5.0 | 11.0 | 0.00 | 0.29 | 0.29 | 68 | 1009.6 |
| 20260509194557 | 58 | 157 | 4.0 | 13.0 | 0.00 | 0.29 | 0.29 | 67 | 1009.6 |
| 20260509194043 | 58 | 179 | 5.0 | 13.0 | 0.00 | 0.29 | 0.29 | 67 | 1009.5 |
| 20260509193547 | 58 | 194 | 5.0 | 12.0 | 0.00 | 0.29 | 0.29 | 66 | 1009.4 |
| 20260509193051 | 58 | 175 | 7.0 | 12.0 | 0.00 | 0.29 | 0.29 | 67 | 1009.3 |
| 20260509192551 | 58 | 134 | 6.0 | 12.0 | 0.00 | 0.29 | 0.29 | 67 | 1009.2 |
| 20260509192045 | 58 | 196 | 4.0 | 14.0 | 0.00 | 0.29 | 0.29 | 68 | 1009.1 |
| 20260509191554 | 58 | 166 | 4.0 | 14.0 | 0.00 | 0.29 | 0.29 | 69 | 1008.9 |
| 20260509191048 | 58 | 168 | 6.0 | 14.0 | 0.00 | 0.29 | 0.29 | 70 | 1008.9 |
| 20260509190542 | 58 | 200 | 6.0 | 14.0 | 0.00 | 0.29 | 0.29 | 71 | 1008.9 |
| 20260509190056 | 59 | 170 | 6.0 | 14.0 | 0.00 | 0.29 | 0.29 | 72 | 1008.8 |
| 20260509185546 | 58 | 164 | 6.0 | 16.0 | 0.00 | 0.29 | 0.29 | 72 | 1008.8 |
| 20260509185043 | 58 | 138 | 9.0 | 16.0 | 0.00 | 0.29 | 0.29 | 73 | 1008.8 |
| 20260509184550 | 58 | 170 | 7.0 | 14.0 | 0.00 | 0.29 | 0.29 | 74 | 1008.8 |
| 20260509184042 | 58 | 178 | 3.0 | 10.0 | 0.00 | 0.29 | 0.29 | 75 | 1008.9 |
| 20260509183543 | 59 | 149 | 5.0 | 10.0 | 0.00 | 0.29 | 0.29 | 75 | 1008.8 |
| 20260509183055 | 59 | 144 | 3.0 | 18.0 | 0.00 | 0.29 | 0.29 | 75 | 1008.9 |
| 20260509182547 | 59 | 184 | 5.0 | 18.0 | 0.00 | 0.29 | 0.29 | 76 | 1008.9 |
| 20260509182042 | 59 | 176 | 6.0 | 13.0 | 0.00 | 0.29 | 0.29 | 76 | 1008.9 |
| 20260509181602 | 59 | 180 | 5.0 | 13.0 | 0.00 | 0.29 | 0.29 | 76 | 1008.8 |
| 20260509181044 | 59 | 188 | 4.0 | 9.0 | 0.00 | 0.29 | 0.29 | 76 | 1008.7 |
| 20260509180545 | 59 | 164 | 6.0 | 10.0 | 0.00 | 0.29 | 0.29 | 76 | 1008.8 |
| 20260509180050 | 58 | 193 | 4.0 | 10.0 | 0.00 | 0.29 | 0.29 | 76 | 1008.9 |
| 20260509175542 | 58 | 149 | 5.0 | 13.0 | 0.00 | 0.29 | 0.29 | 77 | 1009.0 |
| 20260509175047 | 58 | 204 | 6.0 | 13.0 | 0.00 | 0.29 | 0.29 | 77 | 1008.9 |
| 20260509174557 | 58 | 170 | 5.0 | 13.0 | 0.00 | 0.29 | 0.29 | 77 | 1008.7 |
| 20260509174044 | 58 | 165 | 6.0 | 13.0 | 0.00 | 0.29 | 0.29 | 77 | 1008.7 |
| 20260509173541 | 57 | 176 | 5.0 | 11.0 | 0.07 | 0.29 | 0.29 | 77 | 1008.8 |
| 20260509173058 | 57 | 168 | 5.0 | 12.0 | 0.07 | 0.29 | 0.29 | 77 | 1008.8 |
| 20260509172543 | 57 | 196 | 3.0 | 12.0 | 0.07 | 0.29 | 0.29 | 79 | 1009.0 |
| 20260509172042 | 56 | 183 | 5.0 | 12.0 | 0.07 | 0.29 | 0.29 | 79 | 1009.0 |
| 20260509171603 | 56 | 126 | 4.0 | 11.0 | 0.07 | 0.29 | 0.29 | 79 | 1009.0 |
| 20260509171045 | 55 | 193 | 7.0 | 11.0 | 0.07 | 0.29 | 0.29 | 78 | 1009.0 |
| 20260509170542 | 56 | 143 | 6.0 | 11.0 | 0.07 | 0.29 | 0.29 | 78 | 1008.9 |
| 20260509170050 | 56 | 194 | 5.0 | 11.0 | 0.07 | 0.29 | 0.29 | 78 | 1008.9 |
| 20260509165542 | 56 | 178 | 4.0 | 10.0 | 0.07 | 0.29 | 0.29 | 80 | 1008.9 |
| 20260509165045 | 56 | 180 | 5.0 | 14.0 | 0.07 | 0.29 | 0.29 | 80 | 1008.8 |
| 20260509164550 | 56 | 187 | 6.0 | 26.0 | 0.07 | 0.29 | 0.29 | 79 | 1008.9 |
| 20260509164045 | 58 | 143 | 9.0 | 26.0 | 0.07 | 0.28 | 0.28 | 76 | 1008.9 |
| 20260509163543 | 60 | 213 | 2.0 | 13.0 | 0.00 | 0.21 | 0.21 | 69 | 1008.7 |
| 20260509163053 | 60 | 172 | 5.0 | 10.0 | 0.00 | 0.21 | 0.21 | 69 | 1008.5 |
| 20260509162545 | 60 | 191 | 3.0 | 9.0 | 0.00 | 0.21 | 0.21 | 70 | 1008.7 |
| 20260509162043 | 60 | 166 | 3.0 | 9.0 | 0.00 | 0.21 | 0.21 | 69 | 1008.7 |
| 20260509161552 | 59 | 194 | 1.0 | 5.0 | 0.00 | 0.21 | 0.21 | 70 | 1008.7 |
| 20260509161042 | 59 | 203 | 0.0 | 5.0 | 0.00 | 0.21 | 0.21 | 71 | 1008.8 |
| 20260509160543 | 59 | 215 | 1.0 | 5.0 | 0.00 | 0.21 | 0.21 | 71 | 1008.7 |
| 20260509160058 | 59 | 179 | 0.0 | 7.0 | 0.00 | 0.21 | 0.21 | 70 | 1008.7 |
| 20260509155542 | 59 | 0 | 1.0 | 7.0 | 0.00 | 0.21 | 0.21 | 73 | 1008.7 |
| 20260509155042 | 58 | 211 | 1.0 | 6.0 | 0.02 | 0.21 | 0.21 | 72 | 1008.8 |
| 20260509154601 | 58 | 123 | 1.0 | 10.0 | 0.02 | 0.21 | 0.21 | 73 | 1008.8 |
| 20260509154042 | 58 | 211 | 4.0 | 10.0 | 0.02 | 0.21 | 0.21 | 73 | 1008.8 |
| 20260509153542 | 59 | 147 | 1.0 | 8.0 | 0.02 | 0.21 | 0.21 | 73 | 1008.8 |